User: anonymous   Login
Location: Copper Breaks State Park
(34.1132°N, 99.7492°W)
Time: 22:21:24
(UTC-05:00)
Language:

SL-16 R/B - Orbit

View from above orbital plane
View from above orbital plane
View from above satellite
View from above satellite

Ground track
Ground track

The orbit data is extracted from the following two-line orbital elements,

1 27006U 01056F   14304.10610412  .00000019  00000-0  68037-4 0  2793
2 27006 099.1786 105.8501 0013788 297.7106 170.7464 13.70927265644944
Epoch (UTC): 31 October 2014 02:32:47
Eccentricity: 0.0013788
inclination: 99.1786°
perigee height: 986 km
apogee height: 1006 km
right ascension of ascending node: 105.8501°
argument of perigee: 297.7106°
revolutions per day: 13.70927265
mean anomaly at epoch: 170.7464°
orbit number at epoch: 64494

The dashed part of the orbit path shows where the satellite is in the earth's shadow,  

DLR